Location: ?????????
(54.7630°N, 39.4991°E)
Time: 09:29:17
(UTC+00:00)

CZ-2C R/B - Pass Details

Date: 14 April 2026
Orbit: 629 x 691 km, 98.1° (Epoch: 10 May)

Event Time Altitude Azimuth Distance (km) Brightness Sun altitude
Rises 20:01:05 0° 19° (NNE) 2,962 7.8 -23.4°
Reaches altitude 10° 20:03:26 10° 27° (NNE) 2,040 6.7 -23.5°
Enters shadow 20:07:02 39° 77° (ENE) 963 4.4 -23.7°
